Regional Weather Roundup
Issued by NWS Boston, MA

Current Version | Previous Version | Text Only | Print | Product List | Glossary Off
Versions: 1 2 3 4 5 6 7 8 9 10 11 12 13 14 15 16 17 18 19 20 21 22 23 24 25 26 27 28 29 30 31 32 33 34 35 36 37 38 39 40 41 42 43 44 45 46 47 48 49 50
630 ASUS41 KBOX 220510 RWRBOX REGIONAL WEATHER ROUNDUP NATIONAL WEATHER SERVICE TAUNTON MA 1200 AM EST MON JAN 22 2018 NOTE: "FAIR" INDICATES FEW OR NO CLOUDS BELOW 12,000 FEET WITH NO SIGNIFICANT WEATHER AND/OR OBSTRUCTIONS TO VISIBILITY. MAZALL-220600- EASTERN MASSACHUSETTS CITY SKY/WX TMP DP RH WIND PRES REMARKS BOSTON MOCLDY 36 30 79 S5 30.20R BEVERLY FAIR 37 31 78 SE3 30.19S LAWRENCE FAIR 32 27 81 CALM 30.20S BEDFORD FAIR 28 25 88 CALM 30.18S BLUE HILL N/A 36 29 75 S7 30.16S WCI 30 NORWOOD MOCLDY 30 28 92 CALM 30.19S MARSHFIELD FAIR 28 28 100 CALM 30.20S PLYMOUTH FAIR 29 25 85 CALM 30.21R TAUNTON MOCLDY 27 25 92 CALM 30.19S NEW BEDFORD MOCLDY 28 27 96 CALM 30.20S $$ MAZALL-220600- CAPE COD AND THE ISLANDS CITY SKY/WX TMP DP RH WIND PRES REMARKS FALMOUTH CLOUDY 25 23 93 CALM 30.22 HYANNIS FAIR 26 23 88 CALM 30.20S CHATHAM FAIR 31 29 92 W3 30.22S PROVINCETOWN FAIR 33 30 88 S7 30.22S WCI 27 NANTUCKET FAIR 31 29 92 SW3 30.21F MARTHAS VNYRD FAIR N/A N/A N/A CALM 30.21S $$ MAZALL-220600- CENTRAL AND WESTERN MASSACHUSETTS CITY SKY/WX TMP DP RH WIND PRES REMARKS WORCESTER CLOUDY 34 27 75 SW5 30.15F WCI 30 FITCHBURG CLOUDY 32 30 92 CALM 30.18S ORANGE CLOUDY 27 27 100 CALM 30.18S SPRINGFIELD CLOUDY 31 29 89 CALM 30.16F WESTFIELD CLOUDY 33 31 92 CALM 30.17F NORTH ADAMS CLOUDY 30 28 92 CALM 30.16F PITTSFIELD MIX PCPN 32 28 85 CALM 30.12S FOG $$ RIZALL-220600- RHODE ISLAND CITY SKY/WX TMP DP RH WIND PRES REMARKS PROVIDENCE CLOUDY 33 30 88 SW3 30.21R NEWPORT CLOUDY 38 31 76 CALM 30.19F BLOCK ISLAND CLOUDY 36 34 92 SW6 30.21S WCI 31 SMITHFIELD CLOUDY N/A N/A N/A CALM 30.18S WESTERLY CLOUDY 33 31 92 E3 30.20F $$ CTZALL-220600- CONNECTICUT CITY SKY/WX TMP DP RH WIND PRES REMARKS BRADLEY INTL CLOUDY 35 30 82 CALM 30.18S HARTFORD CLOUDY 34 31 88 CALM 30.19S BRIDGEPORT LGT RAIN 37 32 82 CALM 30.19S DANBURY LGT RAIN 36 34 92 CALM 30.18S GROTON CLOUDY 34 31 88 CALM 30.20S NEW HAVEN LGT RAIN 37 32 82 CALM 30.19R CHESTER CLOUDY 39 30 70 CALM 30.18R MERIDEN LGT RAIN 33 30 88 CALM 30.19R WILLIMANTIC MIX PCPN 32 29 88 NE3 30.19S OXFORD LGT RAIN 37 31 78 CALM 30.17S $$ MEZ002-015-021-024-NHZ003-005-008-011-012-014-VTZ005-008-220600- NORTHERN NEW ENGLAND CITY SKY/WX TMP DP RH WIND PRES REMARKS PORTLAND ME FAIR 28 27 96 W3 30.20R BANGOR ME CLOUDY 29 16 58 N9 30.23R WCI 20 CONCORD NH FAIR 27 24 89 CALM 30.18S MANCHESTER NH CLOUDY 29 26 89 N3 30.17S NASHUA NH FAIR 27 26 96 CALM 30.18F PORTSMOUTH NH CLOUDY 28 25 87 CALM 30.18S JAFFREY NH CLOUDY 29 28 96 CALM 30.15S KEENE NH CLOUDY 26 25 96 CALM 30.17F BURLINGTON VT CLOUDY 30 24 78 NW7 30.18S WCI 23 MT. WASHINGTON MOCLDY 19 18 93 W22 N/A WCI 3 $$ NYZ052-076-220600- EASTERN NEW YORK CITY SKY/WX TMP DP RH WIND PRES REMARKS ALBANY LGTSLEET 33 28 81 CALM 30.16F NEW YORK CITY CLOUDY 46 35 65 E3 30.16S $$ ANZALL-220600- MARINE OBSERVATIONS STATION/POSITION TIME TEMP WIND PRES VSBY WAVE AIR SEA DIR/SP/G HT/PER (UTC) (F) (DEG/KT/KT) (MB) (MI) (FT/S) BOSTON BUOY 0450 40 40 160/ 6/ 8 1022.1R 1/10 BUZZARDS BAY 0400 39 170/ 4/ 5 1023.3F NANTUCKET SOUND 0450 36 37 220/ 4/ 6 1023.2R 1 MASS BAY-STELLWA 0404 40 39 1021.7R 1/ 8 ISLE OF SHOALS 0400 39 210/ 9/ 9 1022.2R S OF BLOCK IS 0443 41 N/A 3/ 8 $$ ......................KEY......................... SKY/WX - SKY CONDITION/PRESENT WEATHER TMP - TEMPERATURE IN FAHRENHEIT DWPT - DEWPOINT IN FAHRENHEIT RH - RELATIVE HUMIDITY IN PERCENT WIND - DIRECTION AND SPEED IN MPH PRES - MEAN SEA LEVEL PRESSURE IN INCHES OF HG WCI - WIND CHILL INDEX VSB - VISIBILITY IN MILES HX - HEAT INDEX TC - TEMPERATURE IN CELSIUS VRB - VARIABLE WIND DIRECTION N/A - NOT AVAILABLE

USA.gov is the U.S. government's official web portal to all federal, state and local government web resources and services.